Regional Weather Roundup
Issued by NWS Northern Indiana

Home | Current Version | Previous Version | Graphics & Text | Print | Product List | Glossary On
Versions: 1 2 3 4 5 6 7 8 9 10 11 12 13 14 15 16 17 18 19 20 21 22 23 24 25 26 27 28 29 30 31 32 33 34 35 36 37 38 39 40 41 42 43 44 45 46 47 48 49 50
000
ASUS43 KIWX 160200
RWRIWX

KIWX WEATHER ROUNDUP
NATIONAL WEATHER SERVICE NORTHERN INDIANA
900 PM EST FRI DEC 15 2017

NOTE: "FAIR" INDICATES FEW OR NO CLOUDS BELOW 12,000 FEET WITH NO
SIGNIFICANT WEATHER AND/OR OBSTRUCTIONS TO VISIBILITY.

* THESE STATIONS ARE NOT UNDER NWS QUALITY CONTROL. THEY ALSO MAY NOT
  REPORT WEATHER SUCH AS PRECIPITATION OR FOG.

INZ001>027-160300-
NORTHERN INDIANA

CITY           SKY/WX    TMP DP  RH WIND       PRES   REMARKS
GARY*          CLOUDY    36  19  51 SW9       29.94R
MICHIGAN CITY* CLOUDY    32  21  64 SW12      29.94S WCI  23
LAPORTE*       CLOUDY    31  22  67 SW10G17   29.94S WCI  23
KNOX*          CLOUDY    32  21  64 SW14G20   29.95R WCI  22
SOUTH BEND     CLOUDY    30  22  72 SW12      29.93S WCI  20
ELKHART*       CLOUDY    30  21  69 W9        29.93  WCI  22
GOSHEN         CLOUDY    29  20  69 SW8       29.93S WCI  21
MONTICELLO*    CLOUDY    32  18  56 SW13      29.98S WCI  22
WARSAW*        CLOUDY    32  21  64 SW9G16    29.94S WCI  24
AUBURN*        CLOUDY    30  19  64 SW6       29.96R WCI  24
FORT WAYNE     CLOUDY    30  21  69 SW14      29.97S WCI  19
PERU/GRISSOM   CLOUDY    31  19  61 SW15      29.97F WCI  20

$$
INZ028>050-160300-
CENTRAL INDIANA

CITY           SKY/WX    TMP DP  RH WIND       PRES   REMARKS
LAFAYETTE      CLOUDY    32  20  61 SW7       30.01S WCI  26
KOKOMO*        CLOUDY    31  20  63 SW14      30.00S WCI  21
MUNCIE*        CLOUDY    31  18  58 SW9       30.01S WCI  23
INDIANAPOLIS   CLOUDY    31  20  63 SW10      30.04F WCI  22

$$
MIZ043>046-050>051-056>058-064>065-071>073-077>080-160300-
SOUTHWEST LOWER MICHIGAN

CITY           SKY/WX    TMP DP  RH WIND       PRES   REMARKS
BATTLE CREEK   FLURRIES  26  21  81 SW10      29.87S WCI  16
BENTON HARBOR  FLURRIES  34  25  69 W17       29.91R WCI  23
COLDWATER*     FLURRIES  29  21  74 SW14G20   29.90S WCI  18
HILLSDALE*     FLURRIES  27  19  74 SW10G16   29.88S WCI  17
HOLLAND        CLOUDY    33  22  63 W15G22    29.87R WCI  23
GRAND RAPIDS   CLOUDY    24  18  77 S6        29.86S WCI  17
KALAMAZOO      LGT SNOW  29  23  78 SW10      29.89R WCI  20
STURGIS*       CLOUDY    30  23  73 SW12      29.91R WCI  21
THREE RIVERS*  CLOUDY    32  22  67 SW8       29.91R WCI  24

$$
OHZ001>008-015>018-024>025-160300-
NORTHWEST OHIO

CITY           SKY/WX    TMP DP  RH WIND       PRES   REMARKS
DEFIANCE       CLOUDY    29  18  63 SW13      29.96R WCI  19
FINDLAY        CLOUDY    30  17  58 SW20      29.96R WCI  17
TOLEDO EXPRESS CLOUDY    26  21  81 SW9       29.94R WCI  17
TOLEDO METCALF CLOUDY    26  17  68 SW9       29.96R WCI  17
LIMA           CLOUDY    28  19  69 SW16      29.99R WCI  16

$$
AND FOR LAKE MICHIGAN COASTAL AND OPEN LAKE BUOY OBSERVATIONS

STATION/POSITION TEMP    WIND        PRES    VSBY  WAVE
                 AIR SEA DIR/SP/G                  HT/PER
                 (F)     (DEG/KT/KT) (MB)    (MI)  (FT/S)
CALUMET HARBOR    34     210/  9/ 13 1012.8S
MICHIGAN CITY     33     210/ 17/ 18   N/A
BURNS HARBOR      34     230/ 12/ 18 1014.2R
SAINT JOSEPH      35     250/ 20/ 27 1012.9

$$
&&




USA.gov is the U.S. government's official web portal to all federal, state and local government web resources and services.